Location: La Chapelle
(48.3135°N, 1.3085°W)
Time: 02:30:58
(UTC+00:00)

Cosmos 1992 Rocket - Pass Details

Date: 03 March 2021
Orbit: 759 x 765 km, 74.0° (Epoch: 16 April)

Event Time Altitude Azimuth Distance (km) Brightness Sun altitude
Rises 19:28:34 0° 211° (SSW) 3,219 7.5 -16.7°
Reaches altitude 10° 19:30:58 10° 215° (SW) 2,296 6.8 -17.1°
Maximum altitude 19:36:08 62° 296° (WNW) 858 4.5 -17.9°
Drops below altitude 10° 19:41:20 10° 17° (NNE) 2,309 6.4 -18.8°
Sets 19:43:44 0° 21° (NNE) 3,238 7.2 -19.2°
